Weather History for Fort Myers, FL

Change the Weather History Date:

Monday, April 29, 2013

  Actual Average Record
Temperature  
Mean Temperature 77 °F 76 °F  
Max Temperature 88 °F 87 °F 94 °F (1986)
Min Temperature 66 °F 65 °F 46 °F (1928)
Degree Days  
Heating Degree Days 0 0  
Month to date heating degree days 0 0  
Since 1 July heating degree days 201 284  
Cooling Degree Days 12 11  
Month to date cooling degree days 350 257  
Year to date cooling degree days 732 618  
Growing Degree Days 26 (Base 50)    
Moisture  
Dew Point 64 °F    
Average Humidity 69    
Maximum Humidity 84    
Minimum Humidity 50    
Precipitation  
Precipitation 0.00 in 0.07 in 1.43 in (2004)
Month to date precipitation 3.09 2.11  
Year to date precipitation 6.35 9.08  
Sea Level Pressure  
Sea Level Pressure 29.98 in    
Wind  
Wind Speed 7 mph (SE)    
Max Wind Speed 17 mph    
Max Gust Speed 22 mph    
Visibility 10 miles    
Events      
T = Trace of Precipitation, MM = Missing Value Source: NWS Daily Summary

Daily Weather History Graph

Daily Weather History Graph

Search for Another Location

Airport:

Trip Planner

Search our weather history database for the weather conditions in past years. The results will help you decide how hot, cold, wet, or windy it might be!

Date:

Astronomy

Apr. 29, 2013 Rise Set
Actual Time 6:50 AM EDT 7:58 PM EDT
Civil Twilight 6:26 AM EDT 8:23 PM EDT
Nautical Twilight 5:57 AM EDT 8:52 PM EDT
Astronomical Twilight 5:28 AM EDT 9:21 PM EDT
Moon No Moon Rise 10:19 AM EDT (4/29)
Length of Visible Light 13h 56m
Length of Day
13h 07m
Waning Gibbous, 80% of the Moon is Illuminated
Apr 29
Waning Gibbous
May 2
Last Quarter
May 9
New
May 18
First Quarter
May 25
Full

Hourly Weather History & Observations

Time (EDT) Temp. Heat Index Dew Point Humidity Pressure Visibility Wind Dir Wind Speed Gust Speed Precip Events Conditions
12:53 AM 71.1 °F - 61.0 °F 70% 30.03 in 10.0 mi ESE 6.9 mph - N/A   Clear
1:53 AM 69.1 °F - 61.0 °F 75% 30.01 in 10.0 mi East 5.8 mph - N/A   Clear
2:53 AM 66.9 °F - 61.0 °F 81% 30.00 in 10.0 mi East 4.6 mph - N/A   Clear
3:53 AM 66.9 °F - 61.0 °F 81% 29.99 in 10.0 mi East 3.5 mph - N/A   Clear
4:53 AM 66.9 °F - 61.0 °F 81% 29.99 in 10.0 mi East 3.5 mph - N/A   Clear
5:53 AM 68.0 °F - 61.0 °F 78% 29.99 in 10.0 mi ESE 4.6 mph - N/A   Clear
6:53 AM 66.9 °F - 61.0 °F 81% 30.00 in 10.0 mi ESE 5.8 mph - N/A   Clear
7:53 AM 70.0 °F - 63.0 °F 78% 30.01 in 10.0 mi ESE 9.2 mph - N/A   Partly Cloudy
8:53 AM 75.0 °F - 64.0 °F 69% 30.02 in 10.0 mi SE 9.2 mph - N/A   Clear
9:53 AM 79.0 °F - 64.9 °F 62% 30.01 in 10.0 mi SE 10.4 mph 18.4 mph N/A   Clear
10:53 AM 81.0 °F 82.7 °F 64.9 °F 58% 30.03 in 10.0 mi SSE 6.9 mph - N/A   Scattered Clouds
11:53 AM 84.0 °F 85.8 °F 64.9 °F 53% 30.02 in 10.0 mi SSE 8.1 mph - N/A   Partly Cloudy
12:53 PM 84.9 °F 86.6 °F 64.9 °F 51% 30.00 in 10.0 mi Variable 5.8 mph - N/A   Clear
1:53 PM 84.9 °F 86.1 °F 64.0 °F 49% 29.98 in 10.0 mi WSW 9.2 mph - N/A   Mostly Cloudy
2:53 PM 84.9 °F 86.1 °F 64.0 °F 49% 29.96 in 10.0 mi West 13.8 mph 18.4 mph N/A   Mostly Cloudy
3:53 PM 87.1 °F 89.9 °F 66.9 °F 51% 29.94 in 10.0 mi SSW 11.5 mph 19.6 mph N/A   Clear
4:53 PM 79.0 °F - 66.0 °F 64% 29.95 in 10.0 mi SE 10.4 mph - N/A   Overcast
5:10 PM 78.8 °F - 66.2 °F 65% 29.95 in 10.0 mi SE 12.7 mph - N/A   Overcast
5:40 PM 75.2 °F - 66.2 °F 73% 29.95 in 10.0 mi SE 9.2 mph - N/A   Mostly Cloudy
5:53 PM 78.1 °F - 66.0 °F 66% 29.95 in 10.0 mi SE 11.5 mph - N/A   Partly Cloudy
6:53 PM 80.1 °F 81.7 °F 64.0 °F 58% 29.94 in 10.0 mi SSE 5.8 mph - N/A   Clear
7:53 PM 75.9 °F - 66.0 °F 71% 29.96 in 10.0 mi East 3.5 mph - N/A   Partly Cloudy
8:53 PM 75.0 °F - 66.9 °F 76% 29.96 in 10.0 mi SE 5.8 mph - N/A   Clear
9:53 PM 73.9 °F - 66.0 °F 76% 29.94 in 10.0 mi SSE 4.6 mph - N/A   Clear
10:53 PM 73.0 °F - 66.9 °F 81% 29.96 in 10.0 mi ESE 4.6 mph - N/A   Clear
11:53 PM 71.1 °F - 66.9 °F 87% 29.97 in 10.0 mi Calm Calm - N/A   Clear